Weather History for Kansas City, MO

Change the Weather History Date:

Friday, March 21, 2014

  Actual Average Record
Temperature  
Mean Temperature 56 °F -  
Max Temperature 64 °F 55 °F 82 °F (2011)
Min Temperature 45 °F 35 °F 18 °F (2002)
Degree Days  
Heating Degree Days 9    
Growing Degree Days 6 (Base 50)    
Moisture  
Dew Point 29 °F    
Average Humidity 37    
Maximum Humidity 56    
Minimum Humidity 23    
Precipitation  
Precipitation 0.00 in - - ()
Sea Level Pressure  
Sea Level Pressure 29.87 in    
Wind  
Wind Speed 9 mph (WNW)    
Max Wind Speed 20 mph    
Max Gust Speed 30 mph    
Visibility 10 miles    
Events      
Averages and records for this station are not official NWS values.
T = Trace of Precipitation, MM = Missing Value Source: NWS Daily Summary

Daily Weather History Graph

Daily Weather History Graph

Search for Another Location

Airport:

Trip Planner

Search our weather history database for the weather conditions in past years. The results will help you decide how hot, cold, wet, or windy it might be!

Date:

Astronomy

Mar. 21, 2014 Rise Set
Actual Time 7:20 AM CDT 7:31 PM CDT
Civil Twilight 6:53 AM CDT 7:58 PM CDT
Nautical Twilight 6:22 AM CDT 8:29 PM CDT
Astronomical Twilight 5:50 AM CDT 9:01 PM CDT
Moon No Moon Rise 10:14 AM CDT (3/21)
Length of Visible Light 13h 04m
Length of Day
12h 11m
Waning Gibbous, 75% of the Moon is Illuminated
Mar 21
Waning Gibbous
Mar 23
Last Quarter
Mar 30
New
Apr 7
First Quarter
Apr 15
Full

Hourly Weather History & Observations

Time (CDT) Temp. Windchill Dew Point Humidity Pressure Visibility Wind Dir Wind Speed Gust Speed Precip Events Conditions
12:54 AM 54.0 °F - 30.0 °F 40% 29.84 in 10.0 mi SSW 8.1 mph - N/A   Clear
1:54 AM 53.1 °F - 30.0 °F 41% 29.83 in 10.0 mi SSW 8.1 mph - N/A   Clear
2:54 AM 52.0 °F - 28.9 °F 41% 29.83 in 10.0 mi SSW 10.4 mph - N/A   Clear
3:54 AM 50.0 °F - 28.9 °F 44% 29.81 in 10.0 mi SSW 3.5 mph - N/A   Clear
4:54 AM 50.0 °F - 28.9 °F 44% 29.80 in 10.0 mi South 3.5 mph - N/A   Clear
5:54 AM 48.9 °F - 30.0 °F 48% 29.78 in 10.0 mi South 8.1 mph - N/A   Clear
6:54 AM 50.0 °F - 28.9 °F 44% 29.78 in 10.0 mi South 6.9 mph - N/A   Clear
7:54 AM 54.0 °F - 28.9 °F 38% 29.77 in 10.0 mi South 8.1 mph - N/A   Clear
8:54 AM 54.0 °F - 30.0 °F 40% 29.77 in 10.0 mi SSW 9.2 mph - N/A   Clear
9:54 AM 57.9 °F - 30.9 °F 36% 29.80 in 10.0 mi West 6.9 mph - N/A   Clear
10:54 AM 59.0 °F - 32.0 °F 36% 29.81 in 10.0 mi NW 5.8 mph - N/A   Clear
11:54 AM 60.1 °F - 32.0 °F 35% 29.82 in 10.0 mi Variable 5.8 mph - N/A   Clear
12:54 PM 62.1 °F - 32.0 °F 32% 29.82 in 10.0 mi WNW 10.4 mph - N/A   Clear
1:54 PM 63.0 °F - 30.9 °F 30% 29.83 in 10.0 mi NW 9.2 mph 19.6 mph N/A   Clear
2:54 PM 63.0 °F - 28.9 °F 28% 29.84 in 10.0 mi NNW 11.5 mph 23.0 mph N/A   Clear
3:54 PM 63.0 °F - 32.0 °F 31% 29.86 in 10.0 mi North 12.7 mph - N/A   Clear
4:54 PM 64.0 °F - 30.0 °F 28% 29.87 in 10.0 mi NNW 15.0 mph 21.9 mph N/A   Clear
5:54 PM 64.0 °F - 27.0 °F 25% 29.89 in 10.0 mi NNW 11.5 mph - N/A   Clear
6:54 PM 61.0 °F - 23.0 °F 23% 29.93 in 10.0 mi NNW 12.7 mph 24.2 mph N/A   Clear
7:54 PM 57.9 °F - 24.1 °F 27% 29.97 in 10.0 mi NNW 11.5 mph - N/A   Clear
8:54 PM 55.9 °F - 26.1 °F 32% 30.01 in 10.0 mi NNW 8.1 mph - N/A   Clear
9:54 PM 52.0 °F - 28.9 °F 41% 30.06 in 10.0 mi North 17.3 mph 25.3 mph N/A   Clear
10:54 PM 48.9 °F - 30.0 °F 48% 30.11 in 10.0 mi North 15.0 mph 29.9 mph N/A   Clear
11:54 PM 45.0 °F 37.1 °F 30.0 °F 56% 30.14 in 10.0 mi North 19.6 mph 27.6 mph N/A   Clear